Regional Weather Roundup
Issued by NWS Huntsville, AL

Home | Current Version | Previous Version | Text Only | Print | Product List | Glossary On
Versions: 1 2 3 4 5 6 7 8 9 10 11 12 13 14 15 16 17 18 19 20 21 22 23 24 25 26 27 28 29 30 31 32 33 34 35 36 37 38 39 40 41 42 43 44 45 46 47 48 49 50
000
ASUS44 KHUN 112210
RWRHUN

WEATHER ROUNDUP FOR THE TENNESSEE VALLEY
NATIONAL WEATHER SERVICE HUNTSVILLE AL
400 PM CST MON DEC 11 2017

ALZ001>004-112300-
NORTHWEST ALABAMA

CITY           SKY/WX    TMP DP  RH WIND       PRES   REMARKS
COURTLAND HCN    N/A     61 N/A N/A SW10        N/A
RUSSELLVILLE     N/A     59 N/A N/A MISG        N/A
SHOALS AIRPORT CLEAR     60  30  32 SW10      29.98F
SHOALS TVA RES   N/A     61 N/A N/A MISG        N/A
$$

ALZ005>007-016-112300-
NORTH CENTRAL ALABAMA

CITY           SKY/WX    TMP DP  RH WIND       PRES   REMARKS
CULLMAN AG STN   N/A     57 N/A N/A SW10        N/A
DECATUR AP     CLEAR     60  31  33 SW10      29.99F
HUNTSVILLE AP  CLEAR     60  33  36 SW12      29.98F
MERIDIANVILLE  CLEAR     57  32  38 S9        29.97F
REDSTONE ARSN  CLEAR     59  32  36 SW10      29.97F
VINEMONT AP    FAIR      57  31  36 SW7       30.02F
$$

ALZ008>010-112300-
NORTHEAST ALABAMA

CITY           SKY/WX    TMP DP  RH WIND       PRES   REMARKS
ALBERTVILLE    CLEAR     55  37  50 SW10G16   30.00S
FORT PAYNE     CLEAR     55  27  33 SW10      29.99R
SCOTTSBORO AP  CLEAR     57  32  38 VRB7G14   29.99S
SCOTTSBORO HCN   N/A     57 N/A N/A MISG        N/A
VALLEY HEAD      N/A     55 N/A N/A MISG        N/A
$$

TNZ076-096-097-112300-
SOUTHEASTERN MIDDLE TENNESSEE

CITY           SKY/WX    TMP DP  RH WIND       PRES   REMARKS
TULLAHOMA      CLEAR     55  30  38 SW9G16    29.94S
WINCHESTER     CLEAR     55  28  35 SW7       29.97R
$$

...SURROUNDING SITES...

CITY           SKY/WX    TMP DP  RH WIND       PRES   REMARKS
ATLANTA        PTCLDY    58  33  39 W8        30.03F
ANNISTON       CLEAR     56  35  45 SW8       30.04F
BIRMINGHAM     PTCLDY    59  29  31 SW10      30.05F
CHATTANOOGA    CLEAR     57  32  38 S10       29.97F
CORINTH        FAIR      63  28  27 S10G17    29.95F
DALTON         CLEAR     52  34  50 SE7       30.01F
GADSDEN        CLEAR     58  38  47 SW5       30.02F
GOLDEN TRNGL   CLEAR     65  31  28 SW7       30.03F
HALEYVILLE     FAIR      58  32  37 SW10      30.02F
JACKSON TN     CLEAR     63  27  25 SW13G22   29.89F
MEMPHIS        PTCLDY    64  33  31 S15G22    29.93F
NASHVILLE      PTCLDY    58  31  35 S14       29.87F
OXFORD MS      FAIR      63  28  27 SW13      30.00S
ROME           CLEAR     56  35  45 S3        29.99F
SAVANNAH       CLEAR     61  32  33 SW12      29.93F
SELMER         CLEAR     61  28  29 SW6G18    29.92F
TUPELO         CLEAR     64  26  23 S7        29.99F
TUSCALOOSA     CLEAR     62  38  40 SW7       30.04F
$$

...GULF COAST WEATHER...

CITY           SKY/WX    TMP DP  RH WIND       PRES   REMARKS
GULFPORT       CLEAR     63  40  42 SW7       30.13F
PASCAGOULA     CLEAR     60  40  47 VRB3      30.14F
MOBILE         CLOUDY    61  44  53 SW12      30.13F
GULF SHORES    CLEAR     59  43  55 W9        30.15F
PENSACOLA      PTCLDY    60  43  53 SW12      30.14F
DESTIN         CLEAR     64  40  41 W7        30.15S
PANAMA CITY    CLEAR     62  46  56 W6        30.15F
APPALACHICOLA  CLEAR     60  51  72 W8        30.17S
$$




USA.gov is the U.S. government's official web portal to all federal, state and local government web resources and services.